{"data":{"norad_id":59173,"intl_designator":"2024-044X","name":"STARLINK-31289","alt_names":[],"object_type":"PAYLOAD","status":"ACTIVE","operator":null,"country":"US","launch_date":"2024-03-04","launch_site_code":"AFETR","launch_vehicle":null,"mission":null,"orbit_class":"UNKNOWN","rcs_meters":null,"size_class":null,"mass_kg":null,"dimensions":null,"purposes":["comms"],"wikipedia_slug":null,"has_3d_model":false,"image_url":null,"decayed_at":null,"tle_current":{"epoch":"2026-05-25T01:13:20.953344Z","epoch_age_seconds":70617,"freshness":"FRESH","line1":"1 59173U 24044X   26145.05093696  .00000078  00000+0  12341-4 0  9994","line2":"2 59173  43.0022  35.8128 0000969 268.4275  91.6465 15.27579367125273","mean_motion":15.27579367,"eccentricity":9.69e-5,"inclination_deg":43.0022,"raan_deg":35.8128,"arg_perigee_deg":268.4275,"mean_anomaly_deg":91.6465,"bstar":1.2341e-5,"rev_number":12527,"period_min":94.26678777601,"perigee_km":482.38614235366,"apogee_km":483.7158405864,"semimajor_km":6861.18799147,"source":"CELESTRAK","updated_at":"2026-05-25T13:38:18.837092Z"}}}